Time,TemperatureF,DewpointF,PressureIn,WindDirection,WindDirectionDegrees,WindSpeedMPH,WindSpeedGustMPH,Humidity,HourlyPrecipIn,Conditions,Clouds,dailyrainin,SoftwareType,DateUTC
2013-02-07 00:01:00,30.4,28.3,25.84,ESE,112,4.0,4.0,92,0.00,,---,0.00,VWS V14.01,2013-02-07 08:01:00,
2013-02-07 00:06:00,30.9,28.3,25.84,SE,135,5.8,5.8,90,0.00,,---,0.00,VWS V14.01,2013-02-07 08:06:00,
2013-02-07 00:11:00,30.9,28.3,25.84,SSE,158,2.7,2.7,90,0.00,,---,0.00,VWS V14.01,2013-02-07 08:11:00,
2013-02-07 00:16:00,30.9,28.3,25.84,SSE,158,2.7,2.7,90,0.00,,---,0.00,VWS V14.01,2013-02-07 08:16:00,
2013-02-07 00:21:00,30.9,28.3,25.84,ENE,68,2.7,2.7,90,0.00,,---,0.00,VWS V14.01,2013-02-07 08:21:00,
2013-02-07 00:26:00,30.7,27.6,25.84,SE,135,4.9,4.9,88,0.00,,---,0.00,VWS V14.01,2013-02-07 08:26:00,
2013-02-07 00:31:00,30.7,27.6,25.84,ESE,112,0.0,0.0,88,0.00,,---,0.00,VWS V14.01,2013-02-07 08:31:00,
2013-02-07 00:36:00,30.4,27.0,25.84,ESE,112,0.0,0.0,87,0.00,,---,0.00,VWS V14.01,2013-02-07 08:36:00,
2013-02-07 00:41:00,30.4,27.0,25.84,ESE,112,3.6,3.6,87,0.00,,---,0.00,VWS V14.01,2013-02-07 08:41:00,
2013-02-07 00:46:00,30.2,26.8,25.84,SE,135,2.7,2.7,87,0.00,,---,0.00,VWS V14.01,2013-02-07 08:46:00,
2013-02-07 00:51:00,30.2,26.8,25.84,ESE,112,2.7,2.7,87,0.00,,---,0.00,VWS V14.01,2013-02-07 08:51:00,
2013-02-07 00:56:00,30.2,26.8,25.81,NE,45,3.1,3.1,87,0.00,,---,0.00,VWS V14.01,2013-02-07 08:56:00,
2013-02-07 01:01:00,30.2,26.8,25.81,NE,45,0.0,0.0,87,0.00,,---,0.00,VWS V14.01,2013-02-07 09:01:00,
2013-02-07 01:06:00,30.2,26.8,25.81,East,90,0.0,0.0,87,0.00,,---,0.00,VWS V14.01,2013-02-07 09:06:00,
2013-02-07 01:11:00,29.8,26.2,25.81,East,90,0.0,0.0,86,0.00,,---,0.00,VWS V14.01,2013-02-07 09:11:00,
2013-02-07 01:16:00,29.7,26.0,25.81,NE,45,0.0,0.0,86,0.00,,---,0.00,VWS V14.01,2013-02-07 09:16:00,
2013-02-07 01:21:00,29.7,26.0,25.81,NE,45,0.0,0.0,86,0.00,,---,0.00,VWS V14.01,2013-02-07 09:21:00,
2013-02-07 01:26:00,29.7,25.7,25.81,ENE,68,0.0,0.0,85,0.00,,---,0.00,VWS V14.01,2013-02-07 09:26:00,
2013-02-07 01:31:00,29.7,25.7,25.81,ENE,68,0.0,0.0,85,0.00,,---,0.00,VWS V14.01,2013-02-07 09:31:00,
2013-02-07 01:36:00,29.7,25.7,25.81,East,90,0.0,0.0,85,0.00,,---,0.00,VWS V14.01,2013-02-07 09:36:00,
2013-02-07 01:41:00,29.7,25.7,25.81,NE,45,0.0,0.0,85,0.00,,---,0.00,VWS V14.01,2013-02-07 09:41:00,
2013-02-07 01:46:00,29.7,25.7,25.81,SE,135,0.0,0.0,85,0.00,,---,0.00,VWS V14.01,2013-02-07 09:46:00,
2013-02-07 01:51:00,29.7,25.7,25.81,SE,135,0.0,0.0,85,0.00,,---,0.00,VWS V14.01,2013-02-07 09:51:00,
2013-02-07 01:56:00,29.7,25.7,25.81,East,90,0.0,2.2,85,0.00,,---,0.00,VWS V14.01,2013-02-07 09:56:00,
2013-02-07 02:01:00,30.2,25.7,25.81,East,90,2.7,2.7,83,0.00,,---,0.00,VWS V14.01,2013-02-07 10:01:00,
2013-02-07 02:06:00,30.2,25.4,25.81,SSE,158,2.7,2.7,82,0.00,,---,0.00,VWS V14.01,2013-02-07 10:06:00,
2013-02-07 02:11:00,30.2,25.4,25.81,SE,135,2.7,2.7,82,0.00,,---,0.00,VWS V14.01,2013-02-07 10:11:00,
2013-02-07 02:16:00,30.2,25.4,25.81,ESE,112,2.7,2.7,82,0.00,,---,0.00,VWS V14.01,2013-02-07 10:16:00,
2013-02-07 02:21:00,30.2,25.4,25.81,East,90,0.0,0.0,82,0.00,,---,0.00,VWS V14.01,2013-02-07 10:21:00,
2013-02-07 02:26:00,30.4,24.7,25.78,East,90,0.0,0.0,79,0.00,,---,0.00,VWS V14.01,2013-02-07 10:26:00,
2013-02-07 02:31:00,30.2,24.5,25.78,East,90,0.0,0.0,79,0.00,,---,0.00,VWS V14.01,2013-02-07 10:31:00,
2013-02-07 02:36:00,30.2,24.5,25.78,SE,135,2.2,2.2,79,0.00,,---,0.00,VWS V14.01,2013-02-07 10:36:00,
2013-02-07 02:41:00,30.2,24.5,25.78,SE,135,0.0,0.0,79,0.00,,---,0.00,VWS V14.01,2013-02-07 10:41:00,
2013-02-07 02:46:00,30.2,24.5,25.78,SE,135,2.2,2.7,79,0.00,,---,0.00,VWS V14.01,2013-02-07 10:46:00,
2013-02-07 02:51:00,30.2,24.5,25.78,NE,45,2.2,2.2,79,0.00,,---,0.00,VWS V14.01,2013-02-07 10:51:00,
2013-02-07 02:56:00,30.2,24.5,25.78,East,90,3.6,4.0,79,0.00,,---,0.00,VWS V14.01,2013-02-07 10:56:00,
2013-02-07 03:01:00,29.8,24.1,25.78,East,90,2.7,4.0,79,0.00,,---,0.00,VWS V14.01,2013-02-07 11:01:00,
2013-02-07 03:06:00,29.8,24.1,25.78,ENE,68,4.0,4.0,79,0.00,,---,0.00,VWS V14.01,2013-02-07 11:06:00,
2013-02-07 03:11:00,29.7,24.3,25.78,NE,45,4.0,4.0,80,0.00,,---,0.00,VWS V14.01,2013-02-07 11:11:00,
2013-02-07 03:16:00,29.7,24.3,25.78,NE,45,0.0,0.0,80,0.00,,---,0.00,VWS V14.01,2013-02-07 11:16:00,
2013-02-07 03:21:00,29.7,24.3,25.78,NE,45,4.0,4.0,80,0.00,,---,0.00,VWS V14.01,2013-02-07 11:21:00,
2013-02-07 03:26:00,29.7,24.3,25.78,NNE,22,2.2,2.2,80,0.00,,---,0.00,VWS V14.01,2013-02-07 11:26:00,
2013-02-07 03:31:00,29.7,24.3,25.78,NNE,22,0.0,2.2,80,0.00,,---,0.00,VWS V14.01,2013-02-07 11:31:00,
2013-02-07 03:36:00,29.3,24.5,25.78,NNE,22,0.0,0.0,82,0.00,,---,0.00,VWS V14.01,2013-02-07 11:36:00,
2013-02-07 03:41:00,29.3,24.5,25.78,NNE,22,0.0,0.0,82,0.00,,---,0.00,VWS V14.01,2013-02-07 11:41:00,
2013-02-07 03:46:00,29.3,24.5,25.78,NNE,22,0.0,0.0,82,0.00,,---,0.00,VWS V14.01,2013-02-07 11:46:00,
2013-02-07 03:51:00,29.3,24.5,25.78,NNE,22,0.0,0.0,82,0.00,,---,0.00,VWS V14.01,2013-02-07 11:51:00,
2013-02-07 03:56:00,29.3,24.5,25.75,NNE,22,0.0,0.0,82,0.00,,---,0.00,VWS V14.01,2013-02-07 11:56:00,
2013-02-07 04:01:00,28.9,24.7,25.75,NE,45,0.0,0.0,84,0.00,,---,0.00,VWS V14.01,2013-02-07 12:01:00,
2013-02-07 04:06:00,28.8,24.5,25.75,NE,45,0.0,0.0,84,0.00,,---,0.00,VWS V14.01,2013-02-07 12:06:00,
2013-02-07 04:11:00,28.6,24.4,25.78,NE,45,0.0,0.0,84,0.00,,---,0.00,VWS V14.01,2013-02-07 12:11:00,
2013-02-07 04:16:00,28.4,24.5,25.78,NE,45,2.7,2.7,85,0.00,,---,0.00,VWS V14.01,2013-02-07 12:16:00,
2013-02-07 04:21:00,28.2,24.3,25.78,NE,45,2.7,2.7,85,0.00,,---,0.00,VWS V14.01,2013-02-07 12:21:00,
2013-02-07 04:26:00,28.0,24.4,25.78,NE,45,0.0,0.0,86,0.00,,---,0.00,VWS V14.01,2013-02-07 12:26:00,
2013-02-07 04:31:00,27.5,23.9,25.78,NE,45,0.0,0.0,86,0.00,,---,0.00,VWS V14.01,2013-02-07 12:31:00,
2013-02-07 04:36:00,27.0,23.3,25.78,NE,45,0.0,0.0,86,0.00,,---,0.00,VWS V14.01,2013-02-07 12:36:00,
2013-02-07 04:41:00,26.6,23.0,25.75,NE,45,0.0,0.0,86,0.00,,---,0.00,VWS V14.01,2013-02-07 12:41:00,
2013-02-07 04:46:00,26.2,22.9,25.75,NE,45,0.0,0.0,87,0.00,,---,0.00,VWS V14.01,2013-02-07 12:46:00,
2013-02-07 04:51:00,26.1,22.7,25.75,NE,45,0.0,0.0,87,0.00,,---,0.00,VWS V14.01,2013-02-07 12:51:00,
2013-02-07 04:56:00,25.9,22.8,25.75,NE,45,0.0,0.0,88,0.00,,---,0.00,VWS V14.01,2013-02-07 12:56:00,
2013-02-07 05:01:00,25.7,22.9,25.75,NE,45,0.0,2.2,89,0.00,,---,0.00,VWS V14.01,2013-02-07 13:01:00,
2013-02-07 05:06:00,25.3,22.6,25.75,NE,45,0.0,2.2,89,0.00,,---,0.00,VWS V14.01,2013-02-07 13:06:00,
2013-02-07 05:11:00,25.0,22.2,25.78,NE,45,0.0,0.0,89,0.00,,---,0.00,VWS V14.01,2013-02-07 13:11:00,
2013-02-07 05:16:00,24.4,21.9,25.78,NE,45,0.0,0.0,90,0.00,,---,0.00,VWS V14.01,2013-02-07 13:16:00,
2013-02-07 05:21:00,24.3,21.8,25.78,NE,45,0.0,0.0,90,0.00,,---,0.00,VWS V14.01,2013-02-07 13:21:00,
2013-02-07 05:26:00,24.4,22.2,25.78,NE,45,0.0,0.0,91,0.00,,---,0.00,VWS V14.01,2013-02-07 13:26:00,
2013-02-07 05:31:00,24.6,22.4,25.78,NE,45,0.0,0.0,91,0.00,,---,0.00,VWS V14.01,2013-02-07 13:31:00,
2013-02-07 05:36:00,24.6,22.6,25.78,NE,45,0.0,0.0,92,0.00,,---,0.00,VWS V14.01,2013-02-07 13:36:00,
2013-02-07 05:41:00,24.4,22.5,25.78,NE,45,0.0,2.7,92,0.00,,---,0.00,VWS V14.01,2013-02-07 13:41:00,
2013-02-07 05:46:00,24.6,22.6,25.78,NE,45,2.7,2.7,92,0.00,,---,0.00,VWS V14.01,2013-02-07 13:46:00,
2013-02-07 05:51:00,24.4,22.7,25.78,NE,45,2.7,3.1,93,0.00,,---,0.00,VWS V14.01,2013-02-07 13:51:00,
2013-02-07 05:56:00,24.4,22.7,25.78,NE,45,2.7,2.7,93,0.00,,---,0.00,VWS V14.01,2013-02-07 13:56:00,
2013-02-07 06:01:00,24.1,22.4,25.78,NE,45,0.0,0.0,93,0.00,,---,0.00,VWS V14.01,2013-02-07 14:01:00,
2013-02-07 06:06:00,23.7,22.0,25.78,NE,45,2.7,2.7,93,0.00,,---,0.00,VWS V14.01,2013-02-07 14:06:00,
2013-02-07 06:11:00,23.4,21.6,25.78,NE,45,0.0,2.7,93,0.00,,---,0.00,VWS V14.01,2013-02-07 14:11:00,
2013-02-07 06:16:00,23.5,21.8,25.78,NE,45,0.0,2.2,93,0.00,,---,0.00,VWS V14.01,2013-02-07 14:16:00,
2013-02-07 06:21:00,23.7,22.2,25.78,NE,45,2.2,2.7,94,0.00,,---,0.00,VWS V14.01,2013-02-07 14:21:00,
2013-02-07 06:26:00,24.1,22.6,25.81,NE,45,0.0,0.0,94,0.00,,---,0.00,VWS V14.01,2013-02-07 14:26:00,
2013-02-07 06:31:00,24.6,23.4,25.81,NE,45,0.0,3.1,95,0.00,,---,0.00,VWS V14.01,2013-02-07 14:31:00,
2013-02-07 06:36:00,25.5,24.5,25.81,NW,315,2.7,6.3,96,0.00,,---,0.00,VWS V14.01,2013-02-07 14:36:00,
2013-02-07 06:41:00,26.1,25.3,25.81,WNW,292,4.0,4.0,97,0.00,,---,0.00,VWS V14.01,2013-02-07 14:41:00,
2013-02-07 06:46:00,26.8,26.0,25.81,West,270,4.5,8.1,97,0.00,,---,0.00,VWS V14.01,2013-02-07 14:46:00,
2013-02-07 06:51:00,27.1,26.1,25.81,NW,315,5.4,6.3,96,0.00,,---,0.00,VWS V14.01,2013-02-07 14:51:00,
2013-02-07 06:56:00,27.1,26.1,25.81,NW,315,3.6,4.9,96,0.00,,---,0.00,VWS V14.01,2013-02-07 14:56:00,
2013-02-07 07:01:00,27.1,26.4,25.81,NW,315,4.9,5.8,97,0.00,,---,0.00,VWS V14.01,2013-02-07 15:01:00,
2013-02-07 07:06:00,27.3,26.8,25.81,WNW,292,5.8,5.8,98,0.00,,---,0.00,VWS V14.01,2013-02-07 15:06:00,
2013-02-07 07:11:00,27.0,26.5,25.81,WNW,292,5.8,5.8,98,0.00,,---,0.00,VWS V14.01,2013-02-07 15:11:00,
2013-02-07 07:16:00,27.3,26.8,25.81,NW,315,5.8,7.6,98,0.00,,---,0.00,VWS V14.01,2013-02-07 15:16:00,
2013-02-07 07:21:00,27.9,27.4,25.81,NW,315,5.4,6.3,98,0.00,,---,0.00,VWS V14.01,2013-02-07 15:21:00,
2013-02-07 07:26:00,27.9,27.4,25.81,NNW,338,10.1,10.1,98,0.00,,---,0.00,VWS V14.01,2013-02-07 15:26:00,
2013-02-07 07:31:00,27.5,27.0,25.81,NW,315,5.8,5.8,98,0.00,,---,0.00,VWS V14.01,2013-02-07 15:31:00,
2013-02-07 07:36:00,27.3,26.8,25.81,NW,315,5.4,6.3,98,0.00,,---,0.00,VWS V14.01,2013-02-07 15:36:00,
2013-02-07 07:41:00,27.1,26.6,25.84,NW,315,4.9,5.4,98,0.00,,---,0.00,VWS V14.01,2013-02-07 15:41:00,
2013-02-07 07:46:00,27.0,26.5,25.84,NW,315,6.3,7.2,98,0.00,,---,0.00,VWS V14.01,2013-02-07 15:46:00,
2013-02-07 07:51:00,27.0,26.5,25.84,NW,315,5.8,5.8,98,0.00,,---,0.00,VWS V14.01,2013-02-07 15:51:00,
2013-02-07 07:56:00,27.0,26.2,25.84,NW,315,5.4,5.8,97,0.00,,---,0.00,VWS V14.01,2013-02-07 15:56:00,
2013-02-07 08:01:00,27.0,26.2,25.84,NW,315,4.9,4.9,97,0.00,,---,0.00,VWS V14.01,2013-02-07 16:01:00,
2013-02-07 08:06:00,27.0,26.2,25.84,NW,315,4.9,4.9,97,0.00,,---,0.00,VWS V14.01,2013-02-07 16:06:00,
2013-02-07 08:11:00,27.0,26.2,25.84,NW,315,4.9,4.9,97,0.00,,---,0.00,VWS V14.01,2013-02-07 16:11:00,
2013-02-07 08:16:00,27.0,26.2,25.84,NW,315,4.9,4.9,97,0.00,,---,0.00,VWS V14.01,2013-02-07 16:16:00,
2013-02-07 08:21:00,27.0,26.2,25.84,NW,315,4.9,4.9,97,0.00,,---,0.00,VWS V14.01,2013-02-07 16:21:00,
2013-02-07 08:26:00,27.0,26.2,25.84,NW,315,4.9,4.9,97,0.00,,---,0.00,VWS V14.01,2013-02-07 16:26:00,
2013-02-07 08:31:00,27.0,26.2,25.84,NW,315,4.9,4.9,97,0.00,,---,0.00,VWS V14.01,2013-02-07 16:31:00,
2013-02-07 08:36:00,27.0,26.2,25.84,NW,315,4.9,4.9,97,0.00,,---,0.00,VWS V14.01,2013-02-07 16:36:00,
2013-02-07 08:41:00,29.1,19.5,25.84,NW,315,4.9,4.9,67,0.00,,---,0.00,VWS V14.01,2013-02-07 16:41:00,
2013-02-07 08:46:00,29.1,19.5,25.84,NW,315,4.9,4.9,67,0.00,,---,0.00,VWS V14.01,2013-02-07 16:46:00,
2013-02-07 08:51:00,30.0,17.8,25.84,WNW,292,4.9,7.2,60,0.00,,---,0.00,VWS V14.01,2013-02-07 16:51:00,
2013-02-07 08:56:00,30.2,17.6,25.84,WNW,292,4.9,7.6,59,0.00,,---,0.00,VWS V14.01,2013-02-07 16:56:00,
2013-02-07 09:01:00,30.2,17.6,25.84,West,270,4.0,4.0,59,0.00,,---,0.00,VWS V14.01,2013-02-07 17:01:00,
2013-02-07 09:06:00,31.1,16.4,25.84,WNW,292,5.4,5.8,54,0.00,,---,0.00,VWS V14.01,2013-02-07 17:06:00,
2013-02-07 09:11:00,31.3,15.7,25.87,West,270,6.3,6.3,52,0.00,,---,0.00,VWS V14.01,2013-02-07 17:11:00,
2013-02-07 09:16:00,31.3,16.1,25.87,West,270,6.3,6.3,53,0.00,,---,0.00,VWS V14.01,2013-02-07 17:16:00,
2013-02-07 09:21:00,31.3,16.1,25.87,West,270,6.3,6.3,53,0.00,,---,0.00,VWS V14.01,2013-02-07 17:21:00,
2013-02-07 09:26:00,32.0,15.5,25.87,West,270,7.6,7.6,50,0.00,,---,0.00,VWS V14.01,2013-02-07 17:26:00,
2013-02-07 09:31:00,32.2,15.6,25.87,WNW,292,5.4,5.4,50,0.00,,---,0.00,VWS V14.01,2013-02-07 17:31:00,
2013-02-07 09:36:00,32.7,14.2,25.87,West,270,8.1,8.1,46,0.00,,---,0.00,VWS V14.01,2013-02-07 17:36:00,
2013-02-07 09:41:00,32.9,14.4,25.84,NW,315,6.3,6.3,46,0.00,,---,0.00,VWS V14.01,2013-02-07 17:41:00,
2013-02-07 09:46:00,33.1,13.0,25.84,West,270,5.8,11.0,43,0.00,,---,0.00,VWS V14.01,2013-02-07 17:46:00,
2013-02-07 09:51:00,33.3,13.7,25.84,NW,315,7.6,7.6,44,0.00,,---,0.00,VWS V14.01,2013-02-07 17:51:00,
2013-02-07 09:56:00,33.6,14.1,25.87,WNW,292,7.2,7.2,44,0.00,,---,0.00,VWS V14.01,2013-02-07 17:56:00,
2013-02-07 10:01:00,33.6,13.5,25.87,NW,315,4.0,5.8,43,0.00,,---,0.00,VWS V14.01,2013-02-07 18:01:00,
2013-02-07 10:06:00,34.0,13.9,25.87,WNW,292,5.4,5.4,43,0.00,,---,0.00,VWS V14.01,2013-02-07 18:06:00,
2013-02-07 10:11:00,34.0,13.3,25.87,West,270,7.6,9.6,42,0.00,,---,0.00,VWS V14.01,2013-02-07 18:11:00,
2013-02-07 10:16:00,34.3,14.2,25.87,NW,315,6.7,6.7,43,0.00,,---,0.00,VWS V14.01,2013-02-07 18:16:00,
2013-02-07 10:21:00,34.5,13.8,25.87,WNW,292,7.6,7.6,42,0.00,,---,0.00,VWS V14.01,2013-02-07 18:21:00,
2013-02-07 10:26:00,34.3,13.6,25.87,NW,315,6.3,6.3,42,0.00,,---,0.00,VWS V14.01,2013-02-07 18:26:00,
2013-02-07 10:31:00,34.3,13.6,25.87,NW,315,6.3,6.3,42,0.00,,---,0.00,VWS V14.01,2013-02-07 18:31:00,
2013-02-07 10:36:00,34.3,13.6,25.87,NW,315,6.3,6.3,42,0.00,,---,0.00,VWS V14.01,2013-02-07 18:36:00,
2013-02-07 10:41:00,34.3,13.6,25.87,NW,315,6.3,6.3,42,0.00,,---,0.00,VWS V14.01,2013-02-07 18:41:00,
2013-02-07 10:46:00,34.3,13.6,25.87,NW,315,6.3,6.3,42,0.00,,---,0.00,VWS V14.01,2013-02-07 18:46:00,
2013-02-07 10:51:00,34.3,13.6,25.87,NW,315,6.3,6.3,42,0.00,,---,0.00,VWS V14.01,2013-02-07 18:51:00,
2013-02-07 10:56:00,34.3,13.6,25.87,NW,315,6.3,6.3,42,0.00,,---,0.00,VWS V14.01,2013-02-07 18:56:00,
2013-02-07 11:01:00,34.9,14.1,25.87,WNW,292,3.6,8.3,42,0.00,,---,0.00,VWS V14.01,2013-02-07 19:01:00,
2013-02-07 11:06:00,35.4,14.6,25.87,West,270,5.4,5.4,42,0.00,,---,0.00,VWS V14.01,2013-02-07 19:06:00,
2013-02-07 11:11:00,35.4,14.6,25.87,West,270,9.6,9.6,42,0.00,,---,0.00,VWS V14.01,2013-02-07 19:11:00,
2013-02-07 11:16:00,35.4,15.2,25.87,West,270,4.9,4.9,43,0.00,,---,0.00,VWS V14.01,2013-02-07 19:16:00,
2013-02-07 11:21:00,35.2,15.5,25.87,West,270,4.0,4.9,44,0.00,,---,0.00,VWS V14.01,2013-02-07 19:21:00,
2013-02-07 11:26:00,34.9,14.7,25.87,West,270,7.6,7.6,43,0.00,,---,0.00,VWS V14.01,2013-02-07 19:26:00,
2013-02-07 11:31:00,35.4,14.6,25.87,West,270,8.3,8.3,42,0.00,,---,0.00,VWS V14.01,2013-02-07 19:31:00,
2013-02-07 11:36:00,35.4,14.6,25.87,West,270,5.4,7.2,42,0.00,,---,0.00,VWS V14.01,2013-02-07 19:36:00,
2013-02-07 11:41:00,35.8,15.5,25.87,West,270,4.0,4.5,43,0.00,,---,0.00,VWS V14.01,2013-02-07 19:41:00,
2013-02-07 11:46:00,36.1,15.3,25.87,NW,315,5.8,6.7,42,0.00,,---,0.00,VWS V14.01,2013-02-07 19:46:00,
2013-02-07 11:51:00,36.3,14.9,25.87,WNW,292,4.9,4.9,41,0.00,,---,0.00,VWS V14.01,2013-02-07 19:51:00,
2013-02-07 11:56:00,36.0,14.6,25.87,WNW,292,4.9,5.4,41,0.00,,---,0.00,VWS V14.01,2013-02-07 19:56:00,
2013-02-07 12:01:00,36.3,14.9,25.87,WNW,292,4.9,5.8,41,0.00,,---,0.00,VWS V14.01,2013-02-07 20:01:00,
2013-02-07 12:06:00,36.7,15.2,25.87,West,270,5.4,8.7,41,0.00,,---,0.00,VWS V14.01,2013-02-07 20:06:00,
2013-02-07 12:11:00,36.5,15.1,25.87,West,270,5.4,5.4,41,0.00,,---,0.00,VWS V14.01,2013-02-07 20:11:00,
2013-02-07 12:16:00,36.1,14.7,25.87,WNW,292,4.9,6.7,41,0.00,,---,0.00,VWS V14.01,2013-02-07 20:16:00,
2013-02-07 12:21:00,36.3,14.9,25.87,NW,315,7.6,7.6,41,0.00,,---,0.00,VWS V14.01,2013-02-07 20:21:00,
2013-02-07 12:26:00,36.3,14.3,25.87,NW,315,6.3,7.6,40,0.00,,---,0.00,VWS V14.01,2013-02-07 20:26:00,
2013-02-07 12:31:00,36.3,14.3,25.87,WSW,248,5.8,10.5,40,0.00,,---,0.00,VWS V14.01,2013-02-07 20:31:00,
2013-02-07 12:36:00,36.7,14.6,25.87,WSW,248,7.2,7.2,40,0.00,,---,0.00,VWS V14.01,2013-02-07 20:36:00,
2013-02-07 12:41:00,36.3,14.3,25.87,NW,315,6.3,7.6,40,0.00,,---,0.00,VWS V14.01,2013-02-07 20:41:00,
2013-02-07 12:46:00,36.5,14.5,25.87,NW,315,4.9,5.4,40,0.00,,---,0.00,VWS V14.01,2013-02-07 20:46:00,
2013-02-07 12:51:00,36.5,14.5,25.87,NW,315,7.6,8.1,40,0.00,,---,0.00,VWS V14.01,2013-02-07 20:51:00,
2013-02-07 12:56:00,36.7,14.6,25.87,WNW,292,7.6,7.6,40,0.00,,---,0.00,VWS V14.01,2013-02-07 20:56:00,
2013-02-07 13:01:00,36.3,14.3,25.87,West,270,5.4,6.3,40,0.00,,---,0.00,VWS V14.01,2013-02-07 21:01:00,
2013-02-07 13:06:00,36.3,14.3,25.87,NW,315,6.3,8.1,40,0.00,,---,0.00,VWS V14.01,2013-02-07 21:06:00,
2013-02-07 13:11:00,36.0,14.0,25.87,NW,315,6.3,6.3,40,0.00,,---,0.00,VWS V14.01,2013-02-07 21:11:00,
2013-02-07 13:16:00,36.3,14.3,25.87,West,270,6.3,7.6,40,0.00,,---,0.00,VWS V14.01,2013-02-07 21:16:00,
2013-02-07 13:21:00,36.7,14.6,25.87,NW,315,8.3,8.3,40,0.00,,---,0.00,VWS V14.01,2013-02-07 21:21:00,
2013-02-07 13:26:00,37.0,15.0,25.87,WNW,292,5.4,8.1,40,0.00,,---,0.00,VWS V14.01,2013-02-07 21:26:00,
2013-02-07 13:31:00,37.0,15.0,25.87,West,270,8.1,8.1,40,0.00,,---,0.00,VWS V14.01,2013-02-07 21:31:00,
2013-02-07 13:36:00,36.5,13.9,25.87,NW,315,7.2,10.1,39,0.00,,---,0.00,VWS V14.01,2013-02-07 21:36:00,
2013-02-07 13:41:00,36.7,14.1,25.84,NW,315,4.9,9.2,39,0.00,,---,0.00,VWS V14.01,2013-02-07 21:41:00,
2013-02-07 13:46:00,36.0,13.4,25.84,WNW,292,5.8,8.7,39,0.00,,---,0.00,VWS V14.01,2013-02-07 21:46:00,
2013-02-07 13:51:00,35.8,13.8,25.84,NW,315,4.9,5.8,40,0.00,,---,0.00,VWS V14.01,2013-02-07 21:51:00,
2013-02-07 13:56:00,36.1,14.2,25.84,West,270,5.4,9.2,40,0.00,,---,0.00,VWS V14.01,2013-02-07 21:56:00,
2013-02-07 14:01:00,37.0,15.0,25.84,NW,315,6.3,6.3,40,0.00,,---,0.00,VWS V14.01,2013-02-07 22:01:00,
2013-02-07 14:06:00,37.8,15.0,25.84,NW,315,5.8,5.8,39,0.00,,---,0.00,VWS V14.01,2013-02-07 22:06:00,
2013-02-07 14:11:00,37.6,14.3,25.84,NW,315,5.8,7.2,38,0.00,,---,0.00,VWS V14.01,2013-02-07 22:11:00,
2013-02-07 14:16:00,37.6,14.9,25.84,West,270,5.4,5.4,39,0.00,,---,0.00,VWS V14.01,2013-02-07 22:16:00,
2013-02-07 14:21:00,37.6,14.3,25.84,West,270,8.1,8.1,38,0.00,,---,0.00,VWS V14.01,2013-02-07 22:21:00,
2013-02-07 14:26:00,37.6,13.1,25.84,WNW,292,8.3,8.3,36,0.00,,---,0.00,VWS V14.01,2013-02-07 22:26:00,
2013-02-07 14:31:00,37.2,13.4,25.84,NW,315,5.8,8.1,37,0.00,,---,0.00,VWS V14.01,2013-02-07 22:31:00,
2013-02-07 14:36:00,36.9,13.0,25.84,WNW,292,5.8,6.7,37,0.00,,---,0.00,VWS V14.01,2013-02-07 22:36:00,
2013-02-07 14:41:00,36.9,13.6,25.87,NW,315,5.4,6.3,38,0.00,,---,0.00,VWS V14.01,2013-02-07 22:41:00,
2013-02-07 14:46:00,36.9,13.6,25.87,WNW,292,5.8,5.8,38,0.00,,---,0.00,VWS V14.01,2013-02-07 22:46:00,
2013-02-07 14:51:00,37.0,13.8,25.87,West,270,6.3,6.3,38,0.00,,---,0.00,VWS V14.01,2013-02-07 22:51:00,
2013-02-07 14:56:00,37.0,13.8,25.87,NW,315,5.4,5.4,38,0.00,,---,0.00,VWS V14.01,2013-02-07 22:56:00,
2013-02-07 15:01:00,37.4,14.1,25.87,WNW,292,3.6,5.4,38,0.00,,---,0.00,VWS V14.01,2013-02-07 23:01:00,
2013-02-07 15:06:00,37.4,13.5,25.87,NW,315,3.6,5.8,37,0.00,,---,0.00,VWS V14.01,2013-02-07 23:06:00,
2013-02-07 15:11:00,37.6,13.7,25.87,NW,315,4.0,4.0,37,0.00,,---,0.00,VWS V14.01,2013-02-07 23:11:00,
2013-02-07 15:16:00,37.2,13.4,25.87,West,270,3.1,5.8,37,0.00,,---,0.00,VWS V14.01,2013-02-07 23:16:00,
2013-02-07 15:21:00,36.9,13.6,25.87,NW,315,3.6,5.4,38,0.00,,---,0.00,VWS V14.01,2013-02-07 23:21:00,
2013-02-07 15:26:00,36.5,13.3,25.87,West,270,3.6,4.9,38,0.00,,---,0.00,VWS V14.01,2013-02-07 23:26:00,
2013-02-07 15:31:00,36.7,14.1,25.87,NW,315,4.0,4.0,39,0.00,,---,0.00,VWS V14.01,2013-02-07 23:31:00,
2013-02-07 15:36:00,37.0,14.4,25.87,WNW,292,4.0,4.0,39,0.00,,---,0.00,VWS V14.01,2013-02-07 23:36:00,
2013-02-07 15:41:00,37.0,14.4,25.87,NW,315,3.1,3.6,39,0.00,,---,0.00,VWS V14.01,2013-02-07 23:41:00,
2013-02-07 15:45:00,37.2,14.0,25.87,West,270,3.6,4.9,38,0.00,,---,0.00,VWS V14.01,2013-02-07 23:45:00,
2013-02-07 15:50:00,37.6,14.3,25.87,West,270,2.7,3.1,38,0.00,,---,0.00,VWS V14.01,2013-02-07 23:50:00,
2013-02-07 15:55:00,37.6,14.3,25.87,NW,315,4.0,4.0,38,0.00,,---,0.00,VWS V14.01,2013-02-07 23:55:00,
2013-02-07 16:00:00,37.4,14.1,25.87,NW,315,3.6,4.9,38,0.00,,---,0.00,VWS V14.01,2013-02-08 00:00:00,
2013-02-07 16:05:00,37.8,14.4,25.87,West,270,3.6,4.0,38,0.00,,---,0.00,VWS V14.01,2013-02-08 00:05:00,
2013-02-07 16:10:00,37.2,14.0,25.87,WNW,292,3.6,3.6,38,0.00,,---,0.00,VWS V14.01,2013-02-08 00:10:00,
2013-02-07 16:15:00,36.9,14.2,25.87,NW,315,3.6,3.6,39,0.00,,---,0.00,VWS V14.01,2013-02-08 00:15:00,
2013-02-07 16:20:00,36.7,14.1,25.87,NW,315,3.6,6.3,39,0.00,,---,0.00,VWS V14.01,2013-02-08 00:20:00,
2013-02-07 16:25:00,36.3,13.8,25.87,NW,315,5.4,5.4,39,0.00,,---,0.00,VWS V14.01,2013-02-08 00:25:00,
2013-02-07 16:30:00,36.0,13.4,25.87,NW,315,5.4,5.4,39,0.00,,---,0.00,VWS V14.01,2013-02-08 00:30:00,
2013-02-07 16:35:00,35.8,13.8,25.87,NW,315,3.6,3.6,40,0.00,,---,0.00,VWS V14.01,2013-02-08 00:35:00,
2013-02-07 16:40:00,35.4,14.1,25.87,NW,315,2.2,2.7,41,0.00,,---,0.00,VWS V14.01,2013-02-08 00:40:00,
2013-02-07 16:45:00,35.1,13.8,25.87,NW,315,2.7,3.1,41,0.00,,---,0.00,VWS V14.01,2013-02-08 00:45:00,
2013-02-07 16:50:00,34.9,13.6,25.87,NW,315,0.0,0.0,41,0.00,,---,0.00,VWS V14.01,2013-02-08 00:50:00,
2013-02-07 16:55:00,34.3,13.1,25.87,NW,315,2.7,3.1,41,0.00,,---,0.00,VWS V14.01,2013-02-08 00:55:00,
2013-02-07 17:00:00,33.6,13.0,25.90,NW,315,2.2,2.7,42,0.00,,---,0.00,VWS V14.01,2013-02-08 01:00:00,
2013-02-07 17:05:00,32.7,12.7,25.90,NW,315,3.1,3.1,43,0.00,,---,0.00,VWS V14.01,2013-02-08 01:05:00,
2013-02-07 17:10:00,32.7,12.7,25.90,NW,315,3.1,3.1,43,0.00,,---,0.00,VWS V14.01,2013-02-08 01:10:00,
2013-02-07 17:15:00,30.4,12.6,25.90,NW,315,3.1,3.6,47,0.00,,---,0.00,VWS V14.01,2013-02-08 01:15:00,
2013-02-07 17:20:00,30.2,12.9,25.90,NW,315,3.1,3.1,48,0.00,,---,0.00,VWS V14.01,2013-02-08 01:20:00,
2013-02-07 17:25:00,29.1,12.8,25.90,NNW,338,3.6,3.6,50,0.00,,---,0.00,VWS V14.01,2013-02-08 01:25:00,
2013-02-07 17:30:00,28.6,12.8,25.90,NNW,338,3.6,4.0,51,0.00,,---,0.00,VWS V14.01,2013-02-08 01:30:00,
2013-02-07 17:35:00,28.0,12.7,25.90,NNW,338,2.7,3.6,52,0.00,,---,0.00,VWS V14.01,2013-02-08 01:35:00,
2013-02-07 17:40:00,27.5,12.2,25.90,NNW,338,2.7,2.7,52,0.00,,---,0.00,VWS V14.01,2013-02-08 01:40:00,
2013-02-07 17:45:00,26.8,12.0,25.90,NNW,338,2.7,2.7,53,0.00,,---,0.00,VWS V14.01,2013-02-08 01:45:00,
2013-02-07 17:50:00,26.1,12.1,25.90,NNW,338,2.2,2.2,55,0.00,,---,0.00,VWS V14.01,2013-02-08 01:50:00,
2013-02-07 17:55:00,25.7,12.2,25.90,NNW,338,4.0,4.0,56,0.00,,---,0.00,VWS V14.01,2013-02-08 01:55:00,
2013-02-07 18:00:00,26.1,12.9,25.90,NNW,338,4.0,4.0,57,0.00,,---,0.00,VWS V14.01,2013-02-08 02:00:00,
2013-02-07 18:05:00,26.6,13.4,25.90,NNW,338,4.9,4.9,57,0.00,,---,0.00,VWS V14.01,2013-02-08 02:05:00,
2013-02-07 18:10:00,27.1,13.9,25.90,NNW,338,4.5,4.5,57,0.00,,---,0.00,VWS V14.01,2013-02-08 02:10:00,
2013-02-07 18:15:00,27.1,13.9,25.90,NNW,338,4.9,4.9,57,0.00,,---,0.00,VWS V14.01,2013-02-08 02:15:00,
2013-02-07 18:20:00,27.3,14.5,25.90,NNW,338,4.9,4.9,58,0.00,,---,0.00,VWS V14.01,2013-02-08 02:20:00,
2013-02-07 18:25:00,27.5,14.7,25.90,NNW,338,5.4,5.4,58,0.00,,---,0.00,VWS V14.01,2013-02-08 02:25:00,
2013-02-07 18:30:00,27.7,14.9,25.90,NNW,338,5.4,5.4,58,0.00,,---,0.00,VWS V14.01,2013-02-08 02:30:00,
2013-02-07 18:35:00,27.9,15.0,25.90,NNW,338,5.4,5.4,58,0.00,,---,0.00,VWS V14.01,2013-02-08 02:35:00,
2013-02-07 18:40:00,27.9,14.6,25.90,NNW,338,5.4,5.4,57,0.00,,---,0.00,VWS V14.01,2013-02-08 02:40:00,
2013-02-07 18:45:00,27.9,15.0,25.90,NNW,338,5.8,5.8,58,0.00,,---,0.00,VWS V14.01,2013-02-08 02:45:00,
2013-02-07 18:50:00,27.9,15.0,25.90,NNW,338,5.8,5.8,58,0.00,,---,0.00,VWS V14.01,2013-02-08 02:50:00,
2013-02-07 18:55:00,27.7,14.9,25.90,NNW,338,5.8,5.8,58,0.00,,---,0.00,VWS V14.01,2013-02-08 02:55:00,
2013-02-07 19:00:00,27.5,14.7,25.90,NNW,338,5.4,5.8,58,0.00,,---,0.00,VWS V14.01,2013-02-08 03:00:00,
2013-02-07 19:05:00,27.7,14.9,25.90,NNW,338,5.8,6.3,58,0.00,,---,0.00,VWS V14.01,2013-02-08 03:05:00,
2013-02-07 19:10:00,27.7,14.9,25.90,NNW,338,6.3,6.3,58,0.00,,---,0.00,VWS V14.01,2013-02-08 03:10:00,
2013-02-07 19:15:00,27.7,14.9,25.93,NNW,338,5.8,6.3,58,0.00,,---,0.00,VWS V14.01,2013-02-08 03:15:00,
2013-02-07 19:20:00,27.9,14.6,25.93,NNW,338,5.8,6.3,57,0.00,,---,0.00,VWS V14.01,2013-02-08 03:20:00,
2013-02-07 19:25:00,27.9,14.6,25.93,NNW,338,6.3,7.2,57,0.00,,---,0.00,VWS V14.01,2013-02-08 03:25:00,
2013-02-07 19:30:00,27.9,14.2,25.93,NNW,338,7.2,7.2,56,0.00,,---,0.00,VWS V14.01,2013-02-08 03:30:00,
2013-02-07 19:35:00,27.9,14.2,25.93,NNW,338,6.3,6.3,56,0.00,,---,0.00,VWS V14.01,2013-02-08 03:35:00,
2013-02-07 19:40:00,27.5,13.9,25.93,NNW,338,7.2,7.2,56,0.00,,---,0.00,VWS V14.01,2013-02-08 03:40:00,
2013-02-07 19:45:00,27.7,14.0,25.93,NNW,338,6.3,6.3,56,0.00,,---,0.00,VWS V14.01,2013-02-08 03:45:00,
2013-02-07 19:50:00,27.3,14.1,25.93,NNW,338,5.8,5.8,57,0.00,,---,0.00,VWS V14.01,2013-02-08 03:50:00,
2013-02-07 19:55:00,27.0,13.8,25.93,NNW,338,6.7,6.7,57,0.00,,---,0.00,VWS V14.01,2013-02-08 03:55:00,
2013-02-07 20:00:00,27.1,13.9,25.93,NNW,338,5.8,6.3,57,0.00,,---,0.00,VWS V14.01,2013-02-08 04:00:00,
2013-02-07 20:05:00,27.1,13.5,25.93,NNW,338,6.3,6.3,56,0.00,,---,0.00,VWS V14.01,2013-02-08 04:05:00,
2013-02-07 20:10:00,27.1,13.5,25.93,NNW,338,6.3,6.3,56,0.00,,---,0.00,VWS V14.01,2013-02-08 04:10:00,
2013-02-07 20:15:00,27.1,13.5,25.93,NNW,338,5.4,5.4,56,0.00,,---,0.00,VWS V14.01,2013-02-08 04:15:00,
2013-02-07 20:20:00,27.1,13.1,25.93,NNW,338,5.4,5.8,55,0.00,,---,0.00,VWS V14.01,2013-02-08 04:20:00,
2013-02-07 20:25:00,27.0,13.0,25.93,NNW,338,5.8,5.8,55,0.00,,---,0.00,VWS V14.01,2013-02-08 04:25:00,
2013-02-07 20:30:00,27.0,13.0,25.93,NNW,338,5.4,6.3,55,0.00,,---,0.00,VWS V14.01,2013-02-08 04:30:00,
2013-02-07 20:35:00,27.0,13.0,25.93,NNW,338,5.4,5.8,55,0.00,,---,0.00,VWS V14.01,2013-02-08 04:35:00,
2013-02-07 20:40:00,26.1,12.5,25.93,NNW,338,5.4,5.4,56,0.00,,---,0.00,VWS V14.01,2013-02-08 04:40:00,
2013-02-07 20:45:00,26.6,13.0,25.93,NNW,338,5.4,5.8,56,0.00,,---,0.00,VWS V14.01,2013-02-08 04:45:00,
2013-02-07 20:50:00,26.4,12.9,25.93,NNW,338,6.3,6.3,56,0.00,,---,0.00,VWS V14.01,2013-02-08 04:50:00,
2013-02-07 20:55:00,26.2,12.7,25.93,NNW,338,5.8,6.7,56,0.00,,---,0.00,VWS V14.01,2013-02-08 04:55:00,
2013-02-07 21:00:00,26.1,12.5,25.93,NNW,338,5.8,5.8,56,0.00,,---,0.00,VWS V14.01,2013-02-08 05:00:00,
2013-02-07 21:05:00,25.9,12.4,25.93,NNW,338,5.4,5.4,56,0.00,,---,0.00,VWS V14.01,2013-02-08 05:05:00,
2013-02-07 21:10:00,25.9,12.4,25.93,NNW,338,5.8,6.3,56,0.00,,---,0.00,VWS V14.01,2013-02-08 05:10:00,
2013-02-07 21:15:00,25.7,11.8,25.93,NNW,338,4.9,5.4,55,0.00,,---,0.00,VWS V14.01,2013-02-08 05:15:00,
2013-02-07 21:20:00,25.3,11.4,25.93,NNW,338,4.5,4.5,55,0.00,,---,0.00,VWS V14.01,2013-02-08 05:20:00,
2013-02-07 21:25:00,25.0,11.5,25.93,NNW,338,4.9,4.9,56,0.00,,---,0.00,VWS V14.01,2013-02-08 05:25:00,
2013-02-07 21:30:00,25.0,11.5,25.93,NNW,338,4.9,4.9,56,0.00,,---,0.00,VWS V14.01,2013-02-08 05:30:00,
2013-02-07 21:35:00,24.6,11.6,25.93,NNW,338,5.4,5.4,57,0.00,,---,0.00,VWS V14.01,2013-02-08 05:35:00,
2013-02-07 21:40:00,24.6,11.6,25.93,NNW,338,4.9,4.9,57,0.00,,---,0.00,VWS V14.01,2013-02-08 05:40:00,
2013-02-07 21:45:00,24.6,11.6,25.96,NNW,338,5.4,5.4,57,0.00,,---,0.00,VWS V14.01,2013-02-08 05:45:00,
2013-02-07 21:50:00,25.0,11.5,25.96,NNW,338,5.4,5.4,56,0.00,,---,0.00,VWS V14.01,2013-02-08 05:50:00,
2013-02-07 21:55:00,25.2,11.7,25.96,NNW,338,5.8,5.8,56,0.00,,---,0.00,VWS V14.01,2013-02-08 05:55:00,
2013-02-07 22:00:00,25.2,11.3,25.96,NNW,338,5.8,5.8,55,0.00,,---,0.00,VWS V14.01,2013-02-08 06:00:00,
2013-02-07 22:05:00,25.0,11.5,25.96,NNW,338,4.9,4.9,56,0.00,,---,0.00,VWS V14.01,2013-02-08 06:05:00,
2013-02-07 22:10:00,24.6,11.2,25.96,NNW,338,5.4,5.4,56,0.00,,---,0.00,VWS V14.01,2013-02-08 06:10:00,
2013-02-07 22:15:00,24.3,11.2,25.96,NNW,338,4.9,5.4,57,0.00,,---,0.00,VWS V14.01,2013-02-08 06:15:00,
2013-02-07 22:20:00,24.3,11.2,25.96,NNW,338,4.9,5.4,57,0.00,,---,0.00,VWS V14.01,2013-02-08 06:20:00,
2013-02-07 22:25:00,24.3,11.2,25.96,NNW,338,5.8,5.8,57,0.00,,---,0.00,VWS V14.01,2013-02-08 06:25:00,
2013-02-07 22:30:00,24.4,11.0,25.96,NNW,338,5.8,6.3,56,0.00,,---,0.00,VWS V14.01,2013-02-08 06:30:00,
2013-02-07 22:35:00,24.6,10.8,25.96,NNW,338,5.8,5.8,55,0.00,,---,0.00,VWS V14.01,2013-02-08 06:35:00,
2013-02-07 22:40:00,24.4,10.6,25.96,NNW,338,4.9,4.9,55,0.00,,---,0.00,VWS V14.01,2013-02-08 06:40:00,
2013-02-07 22:45:00,24.4,10.6,25.93,NNW,338,4.9,4.9,55,0.00,,---,0.00,VWS V14.01,2013-02-08 06:45:00,
2013-02-07 22:50:00,24.4,10.6,25.93,NNW,338,4.0,4.0,55,0.00,,---,0.00,VWS V14.01,2013-02-08 06:50:00,
2013-02-07 22:55:00,24.3,10.4,25.93,NNW,338,4.9,4.9,55,0.00,,---,0.00,VWS V14.01,2013-02-08 06:55:00,
2013-02-07 23:00:00,24.3,10.4,25.93,NNW,338,4.9,4.9,55,0.00,,---,0.00,VWS V14.01,2013-02-08 07:00:00,
2013-02-07 23:05:00,24.3,10.0,25.93,NNW,338,4.9,5.4,54,0.00,,---,0.00,VWS V14.01,2013-02-08 07:05:00,
2013-02-07 23:10:00,24.4,10.6,25.93,NNW,338,4.9,5.8,55,0.00,,---,0.00,VWS V14.01,2013-02-08 07:10:00,
2013-02-07 23:15:00,24.8,10.5,25.93,NNW,338,5.4,5.4,54,0.00,,---,0.00,VWS V14.01,2013-02-08 07:15:00,
2013-02-07 23:20:00,24.6,10.4,25.93,NNW,338,5.4,6.3,54,0.00,,---,0.00,VWS V14.01,2013-02-08 07:20:00,
2013-02-07 23:25:00,24.8,10.5,25.93,NNW,338,5.4,6.3,54,0.00,,---,0.00,VWS V14.01,2013-02-08 07:25:00,
2013-02-07 23:30:00,24.6,10.4,25.93,NNW,338,5.4,5.8,54,0.00,,---,0.00,VWS V14.01,2013-02-08 07:30:00,
2013-02-07 23:35:00,24.8,10.5,25.93,NNW,338,5.4,6.3,54,0.00,,---,0.00,VWS V14.01,2013-02-08 07:35:00,
2013-02-07 23:40:00,25.2,10.4,25.93,NNW,338,6.3,7.2,53,0.00,,---,0.00,VWS V14.01,2013-02-08 07:40:00,
2013-02-07 23:45:00,25.3,10.2,25.93,NNW,338,5.8,7.2,52,0.00,,---,0.00,VWS V14.01,2013-02-08 07:45:00,
2013-02-07 23:50:00,25.7,10.1,25.93,NNW,338,6.3,6.7,51,0.00,,---,0.00,VWS V14.01,2013-02-08 07:50:00,
2013-02-07 23:55:00,26.2,10.1,25.93,NNW,338,6.3,7.6,50,0.00,,---,0.00,VWS V14.01,2013-02-08 07:55:00,